When you browse on this site, cookies collect data to enhance your experience and personalize the content and advertising you see.
Visit our Privacy Policy to learn more. By continuing to use the site, you agree to this use of cookies and data.
  • In Schweiz
  • Länderverzeichnis
  • Für 7 Tage
  • Wassertemperatur
  • Wetterkarte
  • Widgets
  • user-avatar
    Anmelden

    Stündliche Wetter Shrewsbury

    Heute, 24 Januar, Freitag

    Zeit Temperatur Niederschläge Wind Luftdruck Luftfeuchtigkeit
    00:00 +7°C° 0 mm 1 m/S 764 mmHg 95%
    01:00 +6°C° 0 mm 1 m/S 764 mmHg 95%
    02:00 +6°C° 0 mm 1 m/S 763 mmHg 95%
    03:00 +5°C° 0 mm 2 m/S 763 mmHg 95%
    04:00 +6°C° 0 mm 1 m/S 762 mmHg 95%
    05:00 +6°C° 0 mm 1 m/S 762 mmHg 94%
    06:00 +6°C° 0 mm 1 m/S 762 mmHg 94%
    07:00 +6°C° 0 mm 1 m/S 762 mmHg 94%
    08:00 +6°C° 0 mm 1 m/S 762 mmHg 94%
    09:00 +6°C° 0 mm 1 m/S 762 mmHg 94%
    10:00 +7°C° 0 mm 1 m/S 762 mmHg 91%
    11:00 +8°C° 0 mm 1 m/S 761 mmHg 87%
    12:00 +9°C° 0 mm 1 m/S 761 mmHg 84%
    13:00 +9°C° 0 mm 1 m/S 761 mmHg 84%
    14:00 +9°C° 0 mm 1 m/S 760 mmHg 84%
    15:00 +10°C° 0 mm 1 m/S 760 mmHg 85%
    16:00 +9°C° 0 mm 1 m/S 760 mmHg 86%
    17:00 +9°C° 0 mm 1 m/S 760 mmHg 88%
    18:00 +8°C° 0 mm 1 m/S 760 mmHg 90%
    19:00 +7°C° 0 mm 0 m/S 760 mmHg 90%
    20:00 +7°C° 0 mm 0 m/S 760 mmHg 90%
    21:00 +7°C° 0 mm 0 m/S 760 mmHg 90%
    22:00 +7°C° 0 mm 0 m/S 759 mmHg 90%
    23:00 +8°C° 0 mm 1 m/S 759 mmHg 90%

    Morgen, 25 Januar, Samstag

    Zeit Temperatur Niederschläge Wind Luftdruck Luftfeuchtigkeit
    00:00 +8°C° 0 mm 1 m/S 759 mmHg 90%
    01:00 +8°C° 0 mm 1 m/S 759 mmHg 89%
    02:00 +8°C° 0 mm 1 m/S 758 mmHg 88%
    03:00 +8°C° 0 mm 1 m/S 758 mmHg 87%
    04:00 +8°C° 0 mm 1 m/S 757 mmHg 86%
    05:00 +8°C° 0 mm 1 m/S 757 mmHg 85%
    06:00 +7°C° 0 mm 2 m/S 757 mmHg 84%
    07:00 +6°C° 0 mm 2 m/S 757 mmHg 86%
    08:00 +6°C° 0 mm 2 m/S 757 mmHg 88%
    09:00 +6°C° 0 mm 2 m/S 757 mmHg 90%
    10:00 +6°C° 0 mm 2 m/S 756 mmHg 87%
    11:00 +7°C° 0 mm 3 m/S 756 mmHg 83%
    12:00 +7°C° 0 mm 3 m/S 756 mmHg 80%
    13:00 +7°C° 0 mm 3 m/S 755 mmHg 82%
    14:00 +7°C° 0 mm 3 m/S 755 mmHg 83%
    15:00 +7°C° 0 mm 3 m/S 754 mmHg 85%
    16:00 +7°C° 0 mm 3 m/S 754 mmHg 87%
    17:00 +7°C° 0 mm 3 m/S 753 mmHg 89%
    18:00 +5°C° 0 mm 3 m/S 753 mmHg 92%
    19:00 +5°C° 0 mm 3 m/S 753 mmHg 92%
    20:00 +7°C° 0 mm 3 m/S 752 mmHg 92%
    21:00 +7°C° 0 mm 3 m/S 752 mmHg 93%
    22:00 +7°C° 0 mm 3 m/S 752 mmHg 93%
    23:00 +7°C° 0 mm 3 m/S 751 mmHg 94%

    übermorgen, 26 Januar, Sonntag

    Zeit Temperatur Niederschläge Wind Luftdruck Luftfeuchtigkeit
    00:00 +7°C° 0 mm 3 m/S 751 mmHg 94%
    01:00 +7°C° 0 mm 3 m/S 750 mmHg 94%
    02:00 +7°C° 0 mm 3 m/S 750 mmHg 94%
    03:00 +7°C° 0 mm 3 m/S 749 mmHg 95%
    04:00 +5°C° 0 mm 4 m/S 749 mmHg 94%
    05:00 +4°C° 0 mm 4 m/S 748 mmHg 93%
    06:00 +4°C° 0 mm 4 m/S 748 mmHg 92%
    07:00 +4°C° 0.1 mm 4 m/S 748 mmHg 91%
    08:00 +5°C° 0.1 mm 5 m/S 748 mmHg 90%
    09:00 +5°C° 0.1 mm 5 m/S 748 mmHg 89%
    10:00 +6°C° 0.9 mm 5 m/S 747 mmHg 91%
    11:00 +6°C° 0.9 mm 5 m/S 747 mmHg 92%
    12:00 +7°C° 0.9 mm 4 m/S 747 mmHg 94%
    13:00 +7°C° 0.3 mm 4 m/S 746 mmHg 92%
    14:00 +8°C° 0.3 mm 3 m/S 746 mmHg 91%
    15:00 +8°C° 0.3 mm 3 m/S 746 mmHg 89%
    16:00 +8°C° 0.4 mm 3 m/S 746 mmHg 90%
    17:00 +7°C° 0.4 mm 2 m/S 746 mmHg 91%
    18:00 +7°C° 0.4 mm 2 m/S 746 mmHg 92%
    19:00 +6°C° 0 mm 2 m/S 746 mmHg 92%
    20:00 +5°C° 0 mm 2 m/S 746 mmHg 93%
    21:00 +4°C° 0 mm 2 m/S 746 mmHg 93%
    22:00 +3°C° 0 mm 3 m/S 745 mmHg 93%
    23:00 +3°C° 0 mm 3 m/S 745 mmHg 94%

    27 Januar, Montag

    Zeit Temperatur Niederschläge Wind Luftdruck Luftfeuchtigkeit
    00:00 +3°C° 0 mm 4 m/S 745 mmHg 94%
    01:00 +2°C° 0.1 mm 5 m/S 744 mmHg 93%
    02:00 +3°C° 0.1 mm 5 m/S 744 mmHg 92%
    03:00 +3°C° 0.1 mm 6 m/S 744 mmHg 90%
    04:00 +3°C° 0 mm 6 m/S 744 mmHg 90%
    05:00 +2°C° 0 mm 5 m/S 744 mmHg 91%
    06:00 +2°C° 0 mm 5 m/S 743 mmHg 91%
    07:00 +3°C° 0 mm 4 m/S 743 mmHg 91%
    08:00 +3°C° 0 mm 4 m/S 743 mmHg 91%
    09:00 +2°C° 0 mm 3 m/S 743 mmHg 92%
    10:00 +3°C° 0.1 mm 4 m/S 743 mmHg 89%
    11:00 +4°C° 0.1 mm 4 m/S 742 mmHg 86%
    12:00 +5°C° 0.1 mm 5 m/S 742 mmHg 84%
    13:00 +5°C° 0.1 mm 5 m/S 741 mmHg 84%
    14:00 +5°C° 0.1 mm 5 m/S 740 mmHg 84%
    15:00 +5°C° 0.1 mm 5 m/S 739 mmHg 84%
    16:00 +5°C° 0.2 mm 4 m/S 738 mmHg 86%
    17:00 +5°C° 0.2 mm 4 m/S 737 mmHg 89%
    18:00 +4°C° 0.2 mm 4 m/S 736 mmHg 91%
    19:00 +4°C° 0.4 mm 4 m/S 736 mmHg 91%
    20:00 +4°C° 0.4 mm 3 m/S 735 mmHg 91%
    21:00 +3°C° 0.4 mm 3 m/S 735 mmHg 92%
    22:00 +3°C° 0.1 mm 4 m/S 735 mmHg 91%
    23:00 +3°C° 0.1 mm 4 m/S 735 mmHg 91%

    28 Januar, Dienstag

    Zeit Temperatur Niederschläge Wind Luftdruck Luftfeuchtigkeit
    00:00 +1°C° 0.1 mm 4 m/S 735 mmHg 90%
    01:00 +1°C° 0 mm 4 m/S 735 mmHg 88%
    02:00 0°C° 0 mm 4 m/S 735 mmHg 85%
    03:00 -1°C° 0 mm 4 m/S 735 mmHg 83%
    04:00 -1°C° 0.2 mm 5 m/S 735 mmHg 86%
    05:00 -1°C° 0.2 mm 5 m/S 735 mmHg 89%
    06:00 -1°C° 0.2 mm 5 m/S 735 mmHg 92%
    07:00 -1°C° 0.1 mm 5 m/S 736 mmHg 89%
    08:00 -1°C° 0.1 mm 6 m/S 736 mmHg 86%
    09:00 +1°C° 0.1 mm 6 m/S 736 mmHg 84%
    10:00 0°C° 0 mm 7 m/S 736 mmHg 79%
    11:00 +1°C° 0 mm 8 m/S 737 mmHg 73%
    12:00 +1°C° 0 mm 9 m/S 737 mmHg 68%
    13:00 +1°C° 0 mm 8 m/S 737 mmHg 68%
    14:00 +1°C° 0 mm 8 m/S 737 mmHg 69%
    15:00 0°C° 0 mm 7 m/S 738 mmHg 69%
    16:00 -1°C° 0 mm 7 m/S 738 mmHg 71%
    17:00 -1°C° 0 mm 6 m/S 739 mmHg 73%
    18:00 -1°C° 0 mm 5 m/S 739 mmHg 75%
    19:00 -1°C° 0 mm 5 m/S 740 mmHg 76%
    20:00 -1°C° 0 mm 5 m/S 740 mmHg 77%
    21:00 -1°C° 0 mm 5 m/S 740 mmHg 78%
    22:00 -1°C° 0 mm 4 m/S 740 mmHg 78%
    23:00 -1°C° 0 mm 4 m/S 741 mmHg 79%

    29 Januar, Mittwoch

    Zeit Temperatur Niederschläge Wind Luftdruck Luftfeuchtigkeit
    00:00 -1°C° 0 mm 4 m/S 741 mmHg 79%
    01:00 -1°C° 0 mm 4 m/S 741 mmHg 78%
    02:00 -1°C° 0 mm 4 m/S 741 mmHg 78%
    03:00 -1°C° 0 mm 5 m/S 741 mmHg 77%
    04:00 -1°C° 0 mm 5 m/S 741 mmHg 78%
    05:00 -1°C° 0 mm 5 m/S 742 mmHg 80%
    06:00 -1°C° 0 mm 5 m/S 742 mmHg 81%
    07:00 -1°C° 0 mm 4 m/S 742 mmHg 80%
    08:00 -1°C° 0 mm 4 m/S 742 mmHg 80%
    09:00 -1°C° 0 mm 4 m/S 742 mmHg 79%
    10:00 +1°C° 0.1 mm 6 m/S 742 mmHg 79%
    11:00 +1°C° 0.1 mm 8 m/S 742 mmHg 78%
    12:00 +2°C° 0.1 mm 10 m/S 742 mmHg 78%
    13:00 +2°C° 0 mm 10 m/S 742 mmHg 77%
    14:00 +2°C° 0 mm 9 m/S 743 mmHg 77%
    15:00 +4°C° 0 mm 8 m/S 743 mmHg 76%
    16:00 +3°C° 0 mm 7 m/S 744 mmHg 79%
    17:00 +3°C° 0 mm 7 m/S 744 mmHg 82%
    18:00 +2°C° 0 mm 6 m/S 745 mmHg 84%
    19:00 +2°C° 0 mm 6 m/S 745 mmHg 84%
    20:00 +2°C° 0 mm 6 m/S 746 mmHg 83%
    21:00 +1°C° 0 mm 6 m/S 746 mmHg 82%
    22:00 +1°C° 0 mm 6 m/S 746 mmHg 82%
    23:00 +2°C° 0 mm 6 m/S 747 mmHg 81%
    Mehr zeigen